Tinley Park, Illinois, United States (60477)
Lat: 41.57N, Lon: 87.78W
Wx Zone: ILZ014
Local Info
Past Weather Observations for Today

NOTE: This archive is for the closest National Weather Service station to Tinley Park. Information may differ from the station used for current weather conditions.

Click here for Long-term Archive

Time Weather Temperature Dewpoint Humidity Pressure Winds Precip Visibility
22:15
Clear
72°F / 22°C 66°F / 19°C 83% 30.04 in
(1017 mb)
Calm - 10SM
21:55
Clear
72°F / 22°C 64°F / 18°C 78% 30.04 in
(1017 mb)
Calm - 10SM
21:35
Clear
73°F / 23°C 64°F / 18°C 74% 30.04 in
(1017 mb)
Calm - 10SM
21:15
Clear
75°F / 24°C 64°F / 18°C 69% 30.04 in
(1017 mb)
SE 3.5 mph
(SE 6 kph)
- 10SM
20:55
Clear
75°F / 24°C 63°F / 17°C 65% 30.01 in
(1016 mb)
ESE 3.5 mph
(ESE 6 kph)
- 10SM
20:35
Clear
77°F / 25°C 63°F / 17°C 61% 30.01 in
(1016 mb)
SE 3.5 mph
(SE 6 kph)
- 10SM
20:15
Clear
77°F / 25°C 63°F / 17°C 61% 30.01 in
(1016 mb)
E 4.6 mph
(E 7 kph)
- 10SM
19:55
Clear
79°F / 26°C 61°F / 16°C 54% 30.01 in
(1016 mb)
E 3.5 mph
(E 6 kph)
- 10SM
19:35
Clear
77°F / 25°C 63°F / 17°C 61% 30.01 in
(1016 mb)
E 4.6 mph
(E 7 kph)
- 10SM
19:15
Clear
79°F / 26°C 61°F / 16°C 54% 30.01 in
(1016 mb)
E 4.6 mph
(E 7 kph)
- 10SM
18:55
Clear
79°F / 26°C 63°F / 17°C 58% 30.01 in
(1016 mb)
E 5.8 mph
(E 9 kph)
- 10SM
18:35
Clear
81°F / 27°C 63°F / 17°C 54% 30.01 in
(1016 mb)
E 6.9 mph
(E 11 kph)
- 10SM
18:15
Clear
81°F / 27°C 63°F / 17°C 54% 30.01 in
(1016 mb)
ESE 5.8 mph
(ESE 9 kph)
- 10SM
17:55
Partly Cloudy
81°F / 27°C 63°F / 17°C 54% 30.01 in
(1016 mb)
ESE 6.9 mph
(ESE 11 kph)
- 10SM
17:15
Clear
81°F / 27°C 64°F / 18°C 58% 29.98 in
(1015 mb)
E 4.6 mph
(E 7 kph)
- 10SM
16:55
Partly Cloudy
82°F / 28°C 63°F / 17°C 51% 30.01 in
(1016 mb)
ESE 6.9 mph
(ESE 11 kph)
- 10SM
16:35
Partly Cloudy
82°F / 28°C 61°F / 16°C 48% 30.01 in
(1016 mb)
E 5.8 mph
(E 9 kph)
- 10SM
16:15
Mostly Cloudy
82°F / 28°C 63°F / 17°C 51% 30.01 in
(1016 mb)
E 8.1 mph
(E 13 kph)
- 7SM
15:55
Overcast
82°F / 28°C 63°F / 17°C 51% 30.01 in
(1016 mb)
ENE 8.1 mph
(ENE 13 kph)
- 10SM
15:35
Overcast
82°F / 28°C 63°F / 17°C 51% 29.98 in
(1015 mb)
ENE 8.1 mph
(ENE 13 kph)
- 10SM
15:15
Overcast
84°F / 29°C 64°F / 18°C 51% 29.98 in
(1015 mb)
SE 4.6 mph
(SE 7 kph)
- 10SM
14:55
Mostly Cloudy
84°F / 29°C 64°F / 18°C 51% 30.01 in
(1016 mb)
ESE 3.5 mph
(ESE 6 kph)
- 10SM
14:35
Mostly Cloudy
84°F / 29°C 63°F / 17°C 48% 30.01 in
(1016 mb)
NE 4.6 mph
(NE 7 kph)
- 10SM
14:15
Mostly Cloudy
84°F / 29°C 64°F / 18°C 51% 30.01 in
(1016 mb)
NE 4.6 mph
(NE 7 kph)
- 10SM
13:55
Partly Cloudy
84°F / 29°C 63°F / 17°C 48% 30.01 in
(1016 mb)
Calm - 10SM
13:35
Clear
84°F / 29°C 63°F / 17°C 48% 30.01 in
(1016 mb)
Calm - 10SM
13:15
Clear
84°F / 29°C 63°F / 17°C 48% 30.01 in
(1016 mb)
SE 4.6 mph
(SE 7 kph)
- 10SM
12:55
Clear
82°F / 28°C 63°F / 17°C 51% 30.01 in
(1016 mb)
NE 5.8 mph
(NE 9 kph)
- 10SM
12:35
Clear
82°F / 28°C 63°F / 17°C 51% 30.04 in
(1017 mb)
NE 3.5 mph
(NE 6 kph)
- 10SM
12:15
Clear
82°F / 28°C 63°F / 17°C 51% 30.04 in
(1017 mb)
N 4.6 mph
(N 7 kph)
- 10SM
11:55
Clear
82°F / 28°C 63°F / 17°C 51% 30.04 in
(1017 mb)
E 5.8 mph
(E 9 kph)
- 10SM
11:35
Clear
82°F / 28°C 63°F / 17°C 51% 30.04 in
(1017 mb)
E 8.1 mph
(E 13 kph)
- 10SM
11:15
Clear
82°F / 28°C 63°F / 17°C 51% 30.04 in
(1017 mb)
E 8.1 mph
(E 13 kph)
- 10SM
10:55
Clear
82°F / 28°C 61°F / 16°C 48% 30.01 in
(1016 mb)
NE 5.8 mph
(NE 9 kph)
- 10SM
10:35
Clear
82°F / 28°C 63°F / 17°C 51% 30.01 in
(1016 mb)
NE 11.5 mph
(NE 19 kph)
- 10SM
10:15
Clear
82°F / 28°C 63°F / 17°C 51% 30.01 in
(1016 mb)
N 6.9 mph
(N 11 kph)
- 10SM
09:55
Clear
81°F / 27°C 61°F / 16°C 51% 30.01 in
(1016 mb)
N 6.9 mph
(N 11 kph)
- 10SM
09:35
Clear
81°F / 27°C 63°F / 17°C 54% 30.01 in
(1016 mb)
NE 9.2 mph
(NE 15 kph)
- 10SM
09:15
Clear
81°F / 27°C 63°F / 17°C 54% 30.01 in
(1016 mb)
NE 11.5 mph
(NE 19 kph)
- 10SM
08:55
Clear
81°F / 27°C 61°F / 16°C 51% 30.01 in
(1016 mb)
NE 9.2 mph
(NE 15 kph)
- 10SM
08:35
Clear
79°F / 26°C 61°F / 16°C 54% 30.01 in
(1016 mb)
N 10.4 mph
(N 17 kph)
- 10SM
08:15
Clear
81°F / 27°C 63°F / 17°C 54% 30.01 in
(1016 mb)
NE 9.2 mph
(NE 15 kph)
- 10SM
07:55
Clear
79°F / 26°C 64°F / 18°C 61% 30.01 in
(1016 mb)
N 8.1 mph
(N 13 kph)
- 10SM
07:35
Clear
79°F / 26°C 66°F / 19°C 65% 30.01 in
(1016 mb)
N 6.9 mph
(N 11 kph)
- 10SM
07:15
Clear
77°F / 25°C 68°F / 20°C 74% 29.98 in
(1015 mb)
N 6.9 mph
(N 11 kph)
- 10SM
06:55
Clear
77°F / 25°C 68°F / 20°C 74% 29.98 in
(1015 mb)
NNW 8.1 mph
(NNW 13 kph)
- 10SM
06:35
Clear
75°F / 24°C 70°F / 21°C 83% 29.98 in
(1015 mb)
NNW 4.6 mph
(NNW 7 kph)
- 10SM
06:15
Clear
73°F / 23°C 68°F / 20°C 83% 29.98 in
(1015 mb)
WNW 3.5 mph
(WNW 6 kph)
- 10SM
05:55
Clear
73°F / 23°C 68°F / 20°C 83% 29.98 in
(1015 mb)
Calm - 10SM
05:35
Clear
72°F / 22°C 66°F / 19°C 83% 29.98 in
(1015 mb)
NW 3.5 mph
(NW 6 kph)
- 10SM
05:15
Clear
72°F / 22°C 66°F / 19°C 83% 29.98 in
(1015 mb)
W 5.8 mph
(W 9 kph)
- 10SM
04:55
Clear
72°F / 22°C 66°F / 19°C 83% 29.98 in
(1015 mb)
SSW 6.9 mph
(SSW 11 kph)
- 10SM
04:35
Clear
72°F / 22°C 66°F / 19°C 83% 29.98 in
(1015 mb)
W 5.8 mph
(W 9 kph)
- 10SM
04:15
Partly Cloudy
73°F / 23°C 66°F / 19°C 78% 29.95 in
(1014 mb)
SSW 8.1 mph
(SSW 13 kph)
- 10SM
03:55
Mostly Cloudy
73°F / 23°C 66°F / 19°C 78% 29.98 in
(1015 mb)
SSW 9.2 mph
(SSW 15 kph)
- 10SM
03:35
Overcast
73°F / 23°C 66°F / 19°C 78% 29.98 in
(1015 mb)
W 11.5 mph
(W 19 kph)
- 10SM
03:15
Overcast
73°F / 23°C 64°F / 18°C 74% 29.98 in
(1015 mb)
W 12.7 mph
(W 20 kph)
- 10SM
02:55
Overcast
73°F / 23°C 66°F / 19°C 78% 29.98 in
(1015 mb)
SSW 12.7 mph
(SSW 20 kph)
- 10SM
02:35
Overcast
72°F / 22°C 66°F / 19°C 83% 29.98 in
(1015 mb)
SSW 8.1 mph
(SSW 13 kph)
- 10SM
02:15
Partly Cloudy
72°F / 22°C 66°F / 19°C 83% 29.98 in
(1015 mb)
SSW 10.4 mph
(SSW 17 kph)
- 10SM
01:55
Partly Cloudy
72°F / 22°C 66°F / 19°C 83% 29.98 in
(1015 mb)
SSW 9.2 mph
(SSW 15 kph)
- 10SM
01:35
Mostly Cloudy
72°F / 22°C 66°F / 19°C 83% 29.98 in
(1015 mb)
SSW 11.5 mph
(SSW 19 kph)
- 10SM
01:15
Overcast
73°F / 23°C 66°F / 19°C 78% 30.01 in
(1016 mb)
SSW 11.5 mph
(SSW 19 kph)
- 10SM
00:55
Overcast
73°F / 23°C 66°F / 19°C 78% 29.98 in
(1015 mb)
SSW 5.8 mph
(SSW 9 kph)
- 10SM
00:35
Overcast
72°F / 22°C 68°F / 20°C 88% 29.98 in
(1015 mb)
SW 5.8 mph
(SW 9 kph)
- 10SM
00:15
Overcast
72°F / 22°C 68°F / 20°C 88% 29.98 in
(1015 mb)
SSE 9.2 mph
(SSE 15 kph)
- 10SM
Time Weather Temperature Dewpoint Humidity Pressure Winds Precip Visibility


Weather for websites

WeatherForYou.com, LLC is not responsible for any damages or problems caused by this service. Current weather conditions are obtained from the closest station including government and personal stations which may have varying degrees of accuracy. Weather forecasts are derived from the NOAA NDFD. Like all things, this site belongs to Jesus Christ... He just trusts us to maintain it. If you have any questions or comments email webmaster@weatherforyou.com

Copyright © 2016, WeatherForYou.com LLC. All rights reserved.